Content
SEND FEEDBACK

Daily
Averages
Monthly
Summary
United States of America

INARAJAN, GUAM


Home > North America > United States > Guam
Elevation: 280 feet     Latitude: 13 18N     Longitude: 144 44E

WEATHER
 
SELECT A DAY
Number of Records: 354,808;   Date Range: 1/1/95 - 11/27/14
 
SHARE

PRINT THIS DATA

[ ← Previous Day ]
WEATHER ALMANAC - JULY 13, 2013
[ Next Day → ]
[ °C ]   °F
Weather ElementAverageHighLow
Temperature82.8 °F87.3 °F (1:55 pm)78.8 °F (1:37 am)
Dewpoint76.9 °F80.6 °F (2:58 pm)71.6 °F (2:53 am)
Humidity82.6 %89 % (1:23 am)77 % (1:55 pm)
Barometer29.81 in29.85 in (8:55 am)29.77 in (3:32 pm)
Wind Speed12.9 mph17.3 mph (4:34 pm)
Wind Gust21.9 mph (3:55 pm)
Weather ElementAverage
Visibility10 mi
Wind DirectionENE (81.9 °)

Weather ElementTotal
Precipitation---
Cooling Degree Days18.1 (Base 65)
Growing Degree Days33.1 (Base 50)
Averaged from 70 records on July 13, 2013
WEATHER CONDITIONS BREAKOUT
WIND DIRECTION BREAKOUT
WEATHER BY HOUR - JULY 13, 2013
[ °C ]   °F
Local TimeTemperatureDewpointHumidityBarometerVisibilityWind DirectionWind SpeedGust SpeedPrecipitationEventsConditions
12:24 AM80.6 °F75.2 °F84 %29.83 in10.0 miEast (100°)11.5 mphScattered Clouds
12:55 AM80.6 °F75.0 °F83 %29.82 in10.0 miEast (100°)13.8 mphScattered Clouds
1:15 AM80.6 °F75.2 °F84 %29.81 in9.0 miENE (70°)16.1 mphRainRain
1:23 AM80.6 °F77.0 °F89 %29.81 in9.0 miEast (80°)12.7 mphRainLight Rain
1:26 AM80.6 °F75.2 °F84 %29.81 in10.0 miEast (80°)11.5 mphScattered Clouds
1:37 AM78.8 °F75.2 °F89 %29.81 in10.0 miEast (80°)12.7 mphMostly Cloudy
1:41 AM78.8 °F73.4 °F83 %29.81 in10.0 miEast (80°)12.7 mphMostly Cloudy
1:55 AM79.7 °F72.9 °F80 %29.81 in10.0 miEast (80°)11.5 mph0.00 inMostly Cloudy
2:53 AM78.8 °F71.6 °F78 %29.80 in10.0 miEast (80°)12.7 mphMostly Cloudy
2:55 AM79.7 °F72.3 °F78 %29.80 in10.0 miEast (90°)12.7 mphMostly Cloudy
3:50 AM80.6 °F73.4 °F79 %29.79 in10.0 miEast (90°)10.4 mphScattered Clouds
3:55 AM79.9 °F73.8 °F81 %29.79 in10.0 miEast (80°)11.5 mphScattered Clouds
4:22 AM80.6 °F75.2 °F84 %29.80 in10.0 miENE (70°)12.7 mphMostly Cloudy
4:33 AM80.6 °F75.2 °F84 %29.80 in10.0 miEast (80°)15.0 mphScattered Clouds
4:55 AM79.9 °F73.4 °F80 %29.81 in10.0 miEast (90°)12.7 mphScattered Clouds
5:09 AM80.6 °F75.2 °F84 %29.81 in10.0 miEast (90°)11.5 mphMostly Cloudy
5:18 AM80.6 °F73.4 °F79 %29.81 in10.0 miEast (90°)12.7 mphMostly Cloudy
5:31 AM80.6 °F75.2 °F84 %29.81 in10.0 miEast (100°)10.4 mphMostly Cloudy
5:36 AM80.6 °F75.2 °F84 %29.81 in10.0 miEast (80°)11.5 mphMostly Cloudy
5:37 AM80.6 °F75.2 °F84 %29.81 in10.0 miEast (90°)12.7 mphMostly Cloudy
5:39 AM80.6 °F75.2 °F84 %29.81 in10.0 miEast (90°)13.8 mphMostly Cloudy
5:55 AM80.2 °F74.7 °F83 %29.81 in10.0 miEast (90°)13.8 mphScattered Clouds
6:11 AM80.6 °F75.2 °F84 %29.81 in10.0 miEast (90°)13.8 mphMostly Cloudy
6:16 AM80.6 °F75.2 °F84 %29.81 in10.0 miEast (90°)12.7 mphScattered Clouds
6:55 AM81.1 °F75.0 °F82 %29.82 in10.0 miEast (80°)12.7 mphMostly Cloudy
7:24 AM82.4 °F77.0 °F84 %29.83 in10.0 miEast (100°)11.5 mphMostly Cloudy
7:55 AM82.6 °F76.3 °F81 %29.84 in10.0 miEast (90°)13.8 mphMostly Cloudy
7:56 AM82.4 °F77.0 °F84 %29.84 in10.0 miEast (90°)13.8 mphScattered Clouds
8:55 AM83.8 °F78.4 °F84 %29.85 in10.0 miEast (90°)11.5 mphScattered Clouds
9:14 AM84.2 °F78.8 °F84 %29.85 in10.0 miEast (90°)11.5 mphMostly Cloudy
9:54 AM84.2 °F78.8 °F84 %29.84 in10.0 miEast (90°)13.8 mphScattered Clouds
9:55 AM84.7 °F78.3 °F81 %29.84 in10.0 miEast (90°)13.8 mphScattered Clouds
10:55 AM85.1 °F78.4 °F80 %29.82 in10.0 miEast (90°)13.8 mphPartly Cloudy
11:53 AM86.0 °F78.8 °F79 %29.81 in10.0 miEast (80°)12.7 mphLight Drizzle
11:55 AM84.9 °F79.5 °F84 %29.81 in10.0 miEast (80°)12.7 mph0.00 inLight Drizzle
12:02 PM84.2 °F78.8 °F84 %29.81 in10.0 miEast (90°)12.7 mphMostly Cloudy
12:10 PM86.0 °F78.8 °F79 %29.81 in10.0 miEast (80°)15.0 mphMostly Cloudy
12:55 PM87.1 °F79.7 °F79 %29.79 in10.0 miEast (100°)12.7 mph0.00 inScattered Clouds
1:55 PM87.3 °F79.3 °F77 %29.78 in10.0 miEast (100°)13.8 mphPartly Cloudy
2:20 PM86.0 °F78.8 °F79 %29.78 in10.0 miEast (90°)13.8 mphMostly Cloudy
2:24 PM86.0 °F78.8 °F79 %29.78 in10.0 miEast (90°)15.0 mph20.7 mphScattered Clouds
2:55 PM86.4 °F79.9 °F81 %29.78 in10.0 miEast (80°)12.7 mphScattered Clouds
2:58 PM86.0 °F80.6 °F84 %29.78 in10.0 miENE (70°)16.1 mphMostly Cloudy
3:02 PM86.0 °F78.8 °F79 %29.78 in10.0 miEast (90°)13.8 mphScattered Clouds
3:11 PM86.0 °F80.6 °F84 %29.78 in10.0 miEast (90°)13.8 mphMostly Cloudy
3:17 PM86.0 °F78.8 °F79 %29.78 in10.0 miEast (90°)15.0 mphScattered Clouds
3:32 PM86.0 °F80.6 °F84 %29.77 in10.0 miENE (70°)12.7 mph19.6 mphMostly Cloudy
3:55 PM84.2 °F79.3 °F85 %29.77 in10.0 miENE (70°)13.8 mph21.9 mphMostly Cloudy
4:01 PM86.0 °F78.8 °F79 %29.78 in10.0 miEast (80°)13.8 mphScattered Clouds
4:06 PM86.0 °F80.6 °F84 %29.78 in10.0 miENE (70°)12.7 mphMostly Cloudy
4:09 PM86.0 °F78.8 °F79 %29.78 in10.0 miENE (70°)12.7 mph19.6 mphScattered Clouds
4:14 PM84.2 °F78.8 °F84 %29.78 in10.0 miENE (60°)12.7 mph19.6 mphMostly Cloudy
4:17 PM84.2 °F78.8 °F84 %29.78 in10.0 miENE (70°)13.8 mphMostly Cloudy
4:30 PM84.2 °F78.8 °F84 %29.78 in10.0 miENE (70°)16.1 mphMostly Cloudy
4:34 PM86.0 °F78.8 °F79 %29.78 in10.0 miEast (80°)17.3 mphMostly Cloudy
4:52 PM86.0 °F78.8 °F79 %29.78 in10.0 miEast (80°)15.0 mph20.7 mphMostly Cloudy
4:55 PM84.7 °F78.4 °F81 %29.78 in10.0 miEast (90°)12.7 mphScattered Clouds
5:17 PM84.2 °F78.8 °F84 %29.78 in10.0 miENE (70°)12.7 mphMostly Cloudy
5:30 PM84.2 °F77.0 °F79 %29.79 in10.0 miEast (80°)13.8 mphMostly Cloudy
5:33 PM82.4 °F77.0 °F84 %29.79 in10.0 miEast (80°)13.8 mphMostly Cloudy
5:35 PM82.4 °F77.0 °F84 %29.79 in10.0 miEast (90°)12.7 mphScattered Clouds
5:55 PM83.3 °F77.0 °F81 %29.79 in10.0 miEast (80°)11.5 mphClear
6:55 PM81.7 °F77.0 °F86 %29.81 in10.0 miENE (70°)11.5 mphPartly Cloudy
7:55 PM81.0 °F77.2 °F88 %29.83 in10.0 miENE (60°)8.1 mphPartly Cloudy
8:55 PM81.0 °F77.0 °F88 %29.84 in10.0 miNE (50°)10.4 mphScattered Clouds
9:55 PM81.1 °F76.5 °F86 %29.84 in10.0 miENE (60°)12.7 mphPartly Cloudy
10:55 PM81.0 °F76.5 °F86 %29.84 in10.0 miENE (70°)12.7 mphScattered Clouds
11:08 PM80.6 °F75.2 °F84 %29.84 in10.0 miENE (70°)10.4 mphMostly Cloudy
11:18 PM80.6 °F75.2 °F84 %29.84 in10.0 miEast (80°)11.5 mphScattered Clouds
11:55 PM80.4 °F75.7 °F86 %29.84 in10.0 miENE (60°)10.4 mphPartly Cloudy
Hourly data recorded from PGUA, located miles away from Inarajan, Guam







STORIES FROM OUR PARTNERS